QPF
0.02 0.02 0.02 0.02 0.02 0.02 0.01 0.01 0.01 0.01 0.01 0.01 0.01 0.01 0.01 0.01 0.01 0.01 0.01 0.01 0.01 0.01 0.01 0.01 0.01 0.01 0.00 0.00 0.00 0.01 0.01 0.01 0.01 0.00 0.00 0.00 0.00 0.01 0.01 0.01 0.01 0.01 0.00
0.00 0.00 0.00 0.00 0.01 0.01 0.01 0.01 0.01 0.01 0.00 0.00 0.00 0.00 0.01 0.01 0.01 0.01 0.01 0.01 0.01 0.01 0.01 0.01 0.01 0.01 0.01 0.01 0.01 0.01 0.01 0.01 0.01 0.01 0.00 0.00 0.01 0.01 0.01 0.01 0.01 0.00 0.00
0.00 0.00 0.00 0.00 0.00 0.01 0.01 0.00 0.00 0.00 0.01 0.01 0.01 0.02 0.02 0.01 0.01 0.01 0.01 0.01 0.01 0.01 0.01 0.01 0.01 0.01 0.01 0.01 0.01 0.01 0.01 0.01 0.01 0.02 0.01 0.01 0.01 0.01 0.02 0.02 0.01 0.02 0.01
0.00 0.00 0.00 0.00 0.00 0.00 0.00 0.01 0.01 0.01 0.01 0.02 0.02 0.02 0.01 0.01 0.01 0.01 0.01 0.00 0.00 0.00 0.00 0.00 0.00 0.00 0.01 0.01 0.01 0.02 0.02 0.02 0.03 0.03 0.02 0.02 0.02 0.02 0.03 0.03 0.02 0.02 0.02
0.00 0.00 0.01 0.01 0.01 0.01 0.01 0.02 0.02 0.02 0.02 0.02 0.01 0.01 0.01 0.01 0.01 0.00 0.00 0.00 0.00 0.00 0.00 0.00 0.00 0.00 0.01 0.01 0.01 0.02 0.04 0.04 0.04 0.04 0.03 0.02 0.02 0.03 0.03 0.03 0.03 0.02 0.02
0.00 0.01 0.01 0.01 0.02 0.02 0.02 0.02 0.02 0.01 0.01 0.01 0.01 0.00 0.00 0.00 0.00 0.00 0.00 0.00 0.00 0.00 0.00 0.00 0.00 0.00 0.00 0.00 0.00 0.01 0.02 0.04 0.04 0.05 0.04 0.04 0.03 0.04 0.04 0.04 0.04 0.04 0.03
0.01 0.02 0.02 0.02 0.02 0.02 0.02 0.01 0.01 0.01 0.01 0.01 0.01 0.00 0.01 0.00 0.00 0.00 0.00 0.00 0.00 0.01 0.01 0.01 0.01 0.01 0.01 0.02 0.01 0.01 0.01 0.02 0.02 0.04 0.05 0.05 0.05 0.05 0.06 0.05 0.05 0.04 0.03
0.02 0.02 0.02 0.01 0.01 0.01 0.01 0.01 0.01 0.01 0.01 0.00 0.00 0.00 0.01 0.00 0.00 0.00 0.00 0.00 0.01 0.01 0.01 0.01 0.02 0.02 0.02 0.01 0.01 0.02 0.03 0.03 0.03 0.03 0.05 0.05 0.04 0.04 0.05 0.05 0.05 0.03 0.02
0.02 0.02 0.01 0.01 0.01 0.01 0.01 0.01 0.01 0.01 0.01 0.00 0.00 0.01 0.01 0.01 0.00 0.00 0.00 0.00 0.01 0.01 0.01 0.01 0.02 0.02 0.01 0.00 0.01 0.03 0.03 0.04 0.02 0.01 0.01 0.01 0.01 0.02 0.02 0.04 0.04 0.04 0.02
0.01 0.01 0.01 0.01 0.00 0.00 0.01 0.01 0.01 0.01 0.01 0.00 0.00 0.01 0.01 0.01 0.00 0.00 0.00 0.00 0.01 0.01 0.01 0.02 0.02 0.01 0.00 0.00 0.01 0.03 0.04 0.03 0.02 0.02 0.03 0.03 0.03 0.03 0.03 0.04 0.05 0.04 0.04
0.01 0.00 0.00 0.00 0.00 0.00 0.01 0.01 0.01 0.00 0.01 0.01 0.01 0.01 0.01 0.01 0.00 0.00 0.00 0.00 0.00 0.01 0.01 0.02 0.02 0.00 0.00 0.00 0.01 0.03 0.03 0.01 0.03 0.04 0.04 0.03 0.04 0.04 0.04 0.04 0.04 0.04 0.04
0.01 0.00 0.00 0.00 0.00 0.00 0.01 0.01 0.01 0.01 0.01 0.01 0.01 0.01 0.01 0.01 0.01 0.00 0.00 0.00 0.00 0.01 0.02 0.02 0.02 0.00 0.00 0.00 0.01 0.01 0.01 0.02 0.05 0.05 0.04 0.04 0.04 0.04 0.04 0.04 0.04 0.04 0.04
0.01 0.01 0.01 0.01 0.01 0.01 0.01 0.01 0.01 0.01 0.01 0.01 0.01 0.01 0.01 0.01 0.01 0.00 0.00 0.00 0.00 0.01 0.02 0.01 0.01 0.00 0.01 0.03 0.02 0.01 0.02 0.04 0.05 0.04 0.04 0.04 0.04 0.04 0.03 0.03 0.03 0.03 0.03
0.02 0.02 0.02 0.02 0.02 0.01 0.01 0.01 0.01 0.02 0.02 0.02 0.01 0.01 0.01 0.01 0.01 0.00 0.00 0.00 0.01 0.01 0.02 0.02 0.02 0.02 0.02 0.03 0.04 0.04 0.05 0.04 0.04 0.05 0.04 0.03 0.03 0.03 0.03 0.02 0.03 0.03 0.02
0.02 0.01 0.02 0.01 0.01 0.01 0.01 0.01 0.01 0.01 0.01 0.01 0.02 0.02 0.02 0.01 0.01 0.00 0.01 0.01 0.01 0.01 0.02 0.03 0.04 0.04 0.04 0.04 0.05 0.05 0.05 0.04 0.04 0.04 0.03 0.03 0.02 0.02 0.02 0.02 0.03 0.02 0.02
0.02 0.01 0.01 0.01 0.01 0.01 0.02 0.02 0.01 0.00 0.00 0.00 0.00 0.01 0.01 0.01 0.00 0.01 0.01 0.01 0.01 0.01 0.02 0.04 0.04 0.04 0.04 0.03 0.03 0.03 0.03 0.03 0.03 0.03 0.03 0.02 0.02 0.02 0.02 0.02 0.02 0.02 0.02
0.02 0.02 0.01 0.01 0.01 0.01 0.02 0.03 0.02 0.01 0.00 0.00 0.00 0.01 0.01 0.00 0.01 0.01 0.01 0.02 0.02 0.02 0.02 0.03 0.04 0.04 0.04 0.03 0.03 0.03 0.03 0.02 0.03 0.03 0.03 0.02 0.02 0.02 0.02 0.02 0.02 0.02 0.02
0.01 0.01 0.01 0.01 0.01 0.01 0.02 0.02 0.02 0.01 0.02 0.02 0.01 0.01 0.01 0.01 0.01 0.01 0.02 0.02 0.02 0.02 0.03 0.03 0.04 0.05 0.04 0.03 0.03 0.02 0.02 0.02 0.02 0.02 0.03 0.02 0.02 0.02 0.01 0.01 0.02 0.02 0.02
0.02 0.02 0.01 0.01 0.01 0.01 0.01 0.01 0.01 0.01 0.01 0.02 0.02 0.02 0.02 0.02 0.02 0.02 0.02 0.02 0.02 0.02 0.03 0.04 0.05 0.05 0.03 0.02 0.02 0.02 0.02 0.02 0.01 0.01 0.02 0.02 0.02 0.02 0.01 0.01 0.01 0.01 0.01
0.01 0.01 0.00 0.00 0.00 0.00 0.01 0.01 0.01 0.01 0.01 0.02 0.02 0.02 0.02 0.02 0.02 0.02 0.02 0.02 0.02 0.02 0.03 0.03 0.04 0.04 0.02 0.01 0.02 0.02 0.02 0.01 0.01 0.01 0.01 0.01 0.02 0.01 0.01 0.01 0.01 0.00 0.01
0.01 0.00 0.00 0.00 0.00 0.01 0.01 0.00 0.01 0.01 0.01 0.02 0.02 0.02 0.03 0.03 0.03 0.03 0.03 0.03 0.03 0.03 0.03 0.03 0.04 0.03 0.02 0.01 0.01 0.01 0.01 0.01 0.01 0.01 0.01 0.01 0.01 0.01 0.00 0.00 0.00 0.00 0.00
0.00 0.00 0.01 0.01 0.00 0.00 0.00 0.00 0.00 0.01 0.01 0.02 0.02 0.02 0.03 0.03 0.03 0.03 0.04 0.04 0.04 0.03 0.03 0.03 0.02 0.02 0.01 0.01 0.01 0.01 0.01 0.01 0.01 0.01 0.01 0.02 0.01 0.01 0.00 0.00 0.00 0.00 0.00
0.00 0.00 0.00 0.00 0.00 0.00 0.00 0.00 0.00 0.01 0.01 0.01 0.02 0.02 0.03 0.03 0.03 0.03 0.04 0.04 0.04 0.03 0.03 0.02 0.02 0.01 0.01 0.01 0.00 0.00 0.00 0.00 0.00 0.01 0.02 0.02 0.01 0.01 0.00 0.00 0.00 0.00 0.00
0.00 0.00 0.00 0.00 0.00 0.00 0.00 0.00 0.00 0.00 0.01 0.01 0.02 0.02 0.02 0.03 0.03 0.03 0.04 0.04 0.04 0.03 0.02 0.02 0.01 0.00 0.00 0.00 0.00 0.00 0.00 0.00 0.00 0.00 0.01 0.02 0.01 0.01 0.01 0.00 0.00 0.00 0.00
0.00 0.00 0.00 0.00 0.00 0.00 0.00 0.00 0.00 0.00 0.00 0.00 0.01 0.01 0.01 0.02 0.02 0.03 0.02 0.02 0.02 0.01 0.01 0.01 0.00 0.00 0.00 0.00 0.00 0.00 0.00 0.00 0.00 0.00 0.01 0.01 0.01 0.01 0.01 0.01 0.01 0.01 0.01
0.00 0.00 0.00 0.00 0.00 0.00 0.00 0.00 0.00 0.00 0.00 0.00 0.00 0.00 0.01 0.01 0.01 0.01 0.01 0.01 0.01 0.01 0.00 0.00 0.00 0.00 0.00 0.00 0.00 0.00 0.00 0.00 0.00 0.00 0.00 0.01 0.01 0.00 0.01 0.00 0.00 0.00 0.01
MSLP
1017.06 1017.47 1017.88 1018.29 1018.67 1019.03 1019.40 1019.78 1020.18 1020.61 1021.04 1021.46 1021.82 1022.12 1022.32 1022.42 1022.44 1022.38 1022.27 1022.13 1021.98 1021.83 1021.68 1021.53 1021.34 1021.12 1020.84 1020.50 1020.12 1019.70 1019.26 1018.84 1018.45 1018.10 1017.79 1017.53 1017.30 1017.09 1016.88 1016.67 1016.43 1016.19 1015.93
1018.22 1018.60 1018.98 1019.34 1019.66 1019.98 1020.28 1020.60 1020.94 1021.29 1021.65 1021.99 1022.29 1022.51 1022.64 1022.67 1022.62 1022.49 1022.33 1022.14 1021.96 1021.79 1021.64 1021.50 1021.35 1021.16 1020.93 1020.65 1020.30 1019.91 1019.49 1019.06 1018.63 1018.23 1017.86 1017.53 1017.22 1016.92 1016.62 1016.32 1015.99 1015.66 1015.31
1019.40 1019.76 1020.09 1020.38 1020.64 1020.87 1021.10 1021.33 1021.58 1021.86 1022.14 1022.41 1022.63 1022.79 1022.86 1022.84 1022.74 1022.57 1022.36 1022.13 1021.92 1021.74 1021.59 1021.45 1021.32 1021.17 1020.99 1020.75 1020.45 1020.09 1019.68 1019.24 1018.79 1018.35 1017.93 1017.52 1017.14 1016.77 1016.40 1016.02 1015.63 1015.21 1014.79
1020.55 1020.87 1021.14 1021.36 1021.53 1021.67 1021.80 1021.94 1022.10 1022.30 1022.50 1022.71 1022.88 1023.00 1023.03 1022.98 1022.85 1022.65 1022.41 1022.16 1021.92 1021.71 1021.54 1021.40 1021.28 1021.15 1020.99 1020.78 1020.51 1020.17 1019.77 1019.33 1018.86 1018.38 1017.91 1017.45 1017.01 1016.59 1016.17 1015.74 1015.29 1014.83 1014.34
1021.60 1021.87 1022.08 1022.21 1022.29 1022.33 1022.37 1022.42 1022.50 1022.63 1022.78 1022.94 1023.09 1023.18 1023.20 1023.14 1022.99 1022.78 1022.51 1022.24 1021.97 1021.73 1021.53 1021.37 1021.23 1021.09 1020.93 1020.73 1020.46 1020.13 1019.73 1019.27 1018.78 1018.27 1017.76 1017.27 1016.79 1016.34 1015.89 1015.44 1014.97 1014.48 1013.96
1022.47 1022.68 1022.82 1022.88 1022.88 1022.83 1022.79 1022.77 1022.80 1022.88 1023.00 1023.14 1023.27 1023.37 1023.39 1023.33 1023.19 1022.96 1022.68 1022.38 1022.07 1021.79 1021.54 1021.34 1021.16 1020.99 1020.81 1020.58 1020.30 1019.95 1019.53 1019.06 1018.54 1018.01 1017.47 1016.96 1016.47 1016.00 1015.55 1015.10 1014.65 1014.16 1013.64
1023.11 1023.26 1023.34 1023.33 1023.27 1023.17 1023.08 1023.02 1023.02 1023.07 1023.18 1023.33 1023.47 1023.57 1023.61 1023.56 1023.42 1023.19 1022.90 1022.56 1022.21 1021.88 1021.57 1021.30 1021.07 1020.84 1020.61 1020.35 1020.03 1019.65 1019.21 1018.71 1018.17 1017.62 1017.07 1016.54 1016.05 1015.60 1015.17 1014.75 1014.33 1013.87 1013.38
1023.49 1023.59 1023.62 1023.58 1023.48 1023.36 1023.25 1023.19 1023.18 1023.24 1023.36 1023.51 1023.67 1023.79 1023.84 1023.81 1023.67 1023.43 1023.11 1022.74 1022.35 1021.96 1021.60 1021.26 1020.96 1020.67 1020.37 1020.05 1019.69 1019.28 1018.80 1018.28 1017.73 1017.16 1016.61 1016.09 1015.61 1015.18 1014.79 1014.42 1014.05 1013.65 1013.20
1023.64 1023.71 1023.72 1023.66 1023.56 1023.45 1023.36 1023.31 1023.32 1023.40 1023.54 1023.71 1023.88 1024.01 1024.07 1024.03 1023.89 1023.64 1023.30 1022.90 1022.47 1022.03 1021.60 1021.21 1020.83 1020.48 1020.13 1019.75 1019.34 1018.89 1018.38 1017.84 1017.28 1016.71 1016.17 1015.66 1015.22 1014.82 1014.48 1014.16 1013.85 1013.51 1013.12
1023.63 1023.68 1023.68 1023.64 1023.56 1023.48 1023.43 1023.41 1023.46 1023.57 1023.73 1023.90 1024.07 1024.20 1024.25 1024.21 1024.05 1023.79 1023.43 1023.01 1022.54 1022.06 1021.60 1021.15 1020.72 1020.31 1019.91 1019.49 1019.03 1018.55 1018.02 1017.46 1016.89 1016.33 1015.80 1015.33 1014.91 1014.56 1014.26 1014.00 1013.74 1013.46 1013.13
1023.52 1023.57 1023.58 1023.57 1023.53 1023.50 1023.50 1023.53 1023.62 1023.75 1023.91 1024.09 1024.25 1024.36 1024.39 1024.32 1024.14 1023.86 1023.49 1023.05 1022.57 1022.07 1021.58 1021.10 1020.64 1020.19 1019.74 1019.29 1018.80 1018.29 1017.74 1017.17 1016.61 1016.06 1015.55 1015.10 1014.73 1014.41 1014.16 1013.95 1013.74 1013.51 1013.22
1023.39 1023.44 1023.48 1023.50 1023.51 1023.54 1023.59 1023.67 1023.78 1023.93 1024.09 1024.26 1024.39 1024.46 1024.46 1024.36 1024.16 1023.87 1023.49 1023.05 1022.57 1022.07 1021.57 1021.08 1020.60 1020.13 1019.65 1019.16 1018.65 1018.11 1017.55 1016.98 1016.42 1015.89 1015.40 1014.98 1014.64 1014.37 1014.15 1013.97 1013.81 1013.61 1013.37
1023.26 1023.33 1023.38 1023.45 1023.51 1023.59 1023.68 1023.80 1023.94 1024.10 1024.26 1024.39 1024.49 1024.53 1024.49 1024.35 1024.14 1023.83 1023.45 1023.02 1022.55 1022.06 1021.57 1021.08 1020.59 1020.10 1019.61 1019.09 1018.55 1018.00 1017.43 1016.85 1016.30 1015.78 1015.32 1014.93 1014.61 1014.37 1014.19 1014.05 1013.91 1013.75 1013.53
1023.16 1023.23 1023.31 1023.40 1023.51 1023.64 1023.77 1023.93 1024.09 1024.24 1024.39 1024.50 1024.56 1024.56 1024.48 1024.32 1024.08 1023.77 1023.40 1022.98 1022.53 1022.06 1021.58 1021.10 1020.61 1020.10 1019.58 1019.04 1018.48 1017.90 1017.32 1016.74 1016.19 1015.68 1015.24 1014.88 1014.60 1014.39 1014.24 1014.12 1014.02 1013.89 1013.70
1023.06 1023.13 1023.23 1023.35 1023.49 1023.65 1023.83 1024.01 1024.19 1024.35 1024.49 1024.57 1024.61 1024.57 1024.46 1024.28 1024.03 1023.72 1023.36 1022.95 1022.52 1022.07 1021.60 1021.12 1020.62 1020.10 1019.56 1018.99 1018.40 1017.79 1017.18 1016.60 1016.05 1015.55 1015.14 1014.80 1014.55 1014.38 1014.26 1014.18 1014.11 1014.01 1013.86
1022.95 1023.02 1023.12 1023.26 1023.43 1023.62 1023.83 1024.04 1024.24 1024.42 1024.55 1024.63 1024.65 1024.60 1024.47 1024.28 1024.02 1023.70 1023.35 1022.96 1022.54 1022.09 1021.63 1021.14 1020.63 1020.08 1019.51 1018.90 1018.28 1017.64 1017.02 1016.42 1015.87 1015.39 1014.99 1014.69 1014.47 1014.33 1014.26 1014.21 1014.18 1014.12 1014.02
1022.83 1022.88 1022.98 1023.13 1023.32 1023.54 1023.79 1024.03 1024.26 1024.46 1024.61 1024.69 1024.71 1024.65 1024.52 1024.32 1024.06 1023.74 1023.39 1023.00 1022.58 1022.14 1021.67 1021.16 1020.63 1020.05 1019.44 1018.81 1018.15 1017.49 1016.84 1016.24 1015.69 1015.23 1014.85 1014.58 1014.39 1014.29 1014.25 1014.25 1014.25 1014.24 1014.18
1022.70 1022.73 1022.82 1022.97 1023.18 1023.43 1023.71 1023.99 1024.26 1024.49 1024.66 1024.77 1024.80 1024.75 1024.62 1024.42 1024.16 1023.85 1023.49 1023.10 1022.67 1022.22 1021.73 1021.21 1020.64 1020.04 1019.40 1018.73 1018.05 1017.37 1016.72 1016.11 1015.57 1015.12 1014.77 1014.52 1014.36 1014.29 1014.28 1014.31 1014.35 1014.37 1014.36
1022.59 1022.60 1022.68 1022.83 1023.06 1023.33 1023.64 1023.96 1024.27 1024.54 1024.74 1024.88 1024.93 1024.90 1024.78 1024.58 1024.32 1024.01 1023.64 1023.24 1022.81 1022.34 1021.83 1021.29 1020.71 1020.09 1019.43 1018.75 1018.05 1017.37 1016.71 1016.11 1015.58 1015.14 1014.80 1014.56 1014.42 1014.37 1014.37 1014.42 1014.47 1014.52 1014.53
1022.53 1022.52 1022.59 1022.75 1022.98 1023.28 1023.61 1023.97 1024.31 1024.61 1024.85 1025.02 1025.10 1025.08 1024.97 1024.79 1024.53 1024.21 1023.84 1023.43 1022.98 1022.50 1021.99 1021.44 1020.85 1020.22 1019.56 1018.88 1018.19 1017.51 1016.86 1016.27 1015.75 1015.32 1014.98 1014.75 1014.61 1014.54 1014.54 1014.57 1014.62 1014.66 1014.67
1022.56 1022.53 1022.59 1022.74 1022.98 1023.29 1023.64 1024.02 1024.39 1024.72 1024.99 1025.18 1025.27 1025.27 1025.18 1025.00 1024.74 1024.42 1024.06 1023.64 1023.19 1022.71 1022.20 1021.65 1021.07 1020.46 1019.81 1019.15 1018.48 1017.82 1017.19 1016.61 1016.10 1015.67 1015.33 1015.07 1014.91 1014.81 1014.77 1014.76 1014.76 1014.76 1014.74
1022.69 1022.64 1022.69 1022.83 1023.07 1023.38 1023.73 1024.12 1024.49 1024.84 1025.12 1025.32 1025.43 1025.44 1025.36 1025.18 1024.93 1024.62 1024.26 1023.85 1023.41 1022.94 1022.44 1021.92 1021.36 1020.78 1020.17 1019.54 1018.91 1018.28 1017.68 1017.11 1016.60 1016.16 1015.79 1015.50 1015.28 1015.13 1015.02 1014.94 1014.88 1014.81 1014.73
1022.90 1022.84 1022.88 1023.01 1023.23 1023.52 1023.87 1024.24 1024.61 1024.94 1025.22 1025.42 1025.54 1025.55 1025.47 1025.30 1025.06 1024.76 1024.41 1024.02 1023.60 1023.16 1022.70 1022.21 1021.69 1021.15 1020.59 1020.01 1019.42 1018.83 1018.25 1017.70 1017.18 1016.72 1016.32 1015.97 1015.69 1015.46 1015.27 1015.10 1014.95 1014.80 1014.64
1023.15 1023.10 1023.12 1023.24 1023.43 1023.70 1024.02 1024.36 1024.70 1025.01 1025.27 1025.46 1025.56 1025.57 1025.50 1025.34 1025.12 1024.84 1024.51 1024.15 1023.77 1023.36 1022.93 1022.49 1022.03 1021.54 1021.03 1020.50 1019.95 1019.39 1018.84 1018.29 1017.77 1017.28 1016.84 1016.44 1016.09 1015.77 1015.50 1015.24 1015.01 1014.77 1014.53
1023.43 1023.37 1023.39 1023.48 1023.65 1023.88 1024.16 1024.46 1024.75 1025.03 1025.26 1025.42 1025.51 1025.52 1025.45 1025.31 1025.11 1024.86 1024.56 1024.24 1023.89 1023.53 1023.15 1022.76 1022.35 1021.91 1021.45 1020.96 1020.45 1019.93 1019.39 1018.85 1018.32 1017.80 1017.32 1016.87 1016.45 1016.07 1015.72 1015.40 1015.09 1014.79 1014.49
1023.69 1023.64 1023.65 1023.72 1023.86 1024.05 1024.28 1024.53 1024.78 1025.01 1025.21 1025.35 1025.42 1025.43 1025.38 1025.25 1025.08 1024.86 1024.60 1024.32 1024.02 1023.70 1023.37 1023.02 1022.66 1022.26 1021.84 1021.39 1020.91 1020.41 1019.88 1019.35 1018.81 1018.28 1017.77 1017.28 1016.82 1016.39 1015.99 1015.61 1015.26 1014.93 1014.61
Thickness
5650 5645 5639 5634 5628 5622 5615 5608 5601 5594 5587 5581 5575 5569 5563 5557 5552 5548 5544 5539 5535 5532 5528 5525 5521 5516 5515 5512 5511 5508 5505 5502 5502 5501 5495 5490 5484 5480 5477 5475 5472 5471 5471
5631 5627 5622 5616 5610 5603 5596 5589 5583 5576 5570 5563 5557 5551 5545 5540 5534 5530 5526 5522 5519 5516 5512 5509 5506 5504 5500 5498 5496 5493 5490 5486 5484 5483 5480 5475 5471 5468 5466 5463 5462 5461 5460
5614 5609 5603 5597 5591 5584 5577 5570 5564 5557 5551 5545 5539 5533 5527 5522 5517 5513 5509 5506 5503 5500 5497 5494 5492 5489 5487 5485 5480 5478 5477 5474 5470 5468 5467 5463 5461 5459 5456 5454 5453 5451 5451
5593 5588 5582 5576 5570 5563 5557 5551 5545 5539 5533 5527 5521 5515 5510 5505 5501 5497 5494 5491 5488 5486 5483 5480 5479 5476 5473 5470 5468 5465 5463 5461 5458 5456 5455 5454 5452 5451 5448 5447 5446 5445 5445
5573 5568 5561 5555 5550 5544 5537 5531 5526 5520 5515 5509 5503 5499 5494 5490 5484 5479 5478 5478 5475 5473 5471 5469 5467 5463 5457 5454 5454 5453 5451 5450 5448 5447 5446 5445 5445 5443 5441 5439 5438 5439 5440
5554 5548 5542 5537 5531 5525 5520 5514 5508 5503 5497 5493 5488 5484 5480 5475 5464 5460 5458 5463 5463 5461 5460 5457 5455 5453 5450 5445 5442 5440 5438 5438 5439 5438 5439 5438 5438 5437 5436 5434 5433 5433 5435
5535 5530 5524 5519 5514 5509 5505 5499 5493 5487 5482 5478 5474 5469 5465 5457 5449 5446 5445 5446 5450 5449 5447 5445 5444 5444 5439 5438 5437 5435 5434 5433 5431 5431 5433 5433 5434 5434 5432 5431 5429 5428 5429
5518 5513 5509 5504 5499 5494 5489 5484 5478 5473 5469 5464 5459 5454 5450 5444 5436 5433 5432 5436 5439 5437 5435 5433 5432 5431 5430 5425 5426 5429 5432 5433 5431 5431 5431 5432 5432 5430 5428 5427 5425 5424 5426
5504 5499 5495 5491 5485 5480 5475 5469 5464 5459 5455 5450 5445 5440 5436 5431 5423 5420 5418 5425 5427 5426 5425 5424 5422 5421 5417 5415 5418 5424 5428 5431 5431 5430 5430 5429 5428 5426 5424 5423 5424 5422 5423
5492 5486 5481 5477 5472 5466 5460 5455 5450 5445 5441 5437 5431 5426 5422 5419 5411 5407 5404 5413 5414 5415 5416 5416 5414 5412 5410 5410 5415 5421 5425 5429 5430 5433 5433 5432 5431 5429 5425 5422 5421 5420 5419
5479 5474 5468 5463 5458 5452 5447 5442 5437 5433 5428 5424 5419 5415 5410 5405 5402 5397 5395 5398 5401 5404 5407 5409 5410 5406 5407 5408 5411 5417 5420 5421 5428 5432 5433 5433 5431 5428 5426 5424 5421 5418 5415
5468 5462 5456 5451 5447 5441 5435 5430 5425 5421 5417 5412 5407 5404 5400 5397 5392 5390 5388 5388 5389 5395 5400 5403 5405 5403 5405 5408 5412 5416 5418 5421 5428 5431 5432 5431 5429 5427 5425 5424 5421 5418 5414
5458 5451 5446 5440 5434 5429 5425 5420 5416 5411 5407 5402 5398 5394 5392 5390 5387 5385 5385 5386 5387 5391 5396 5397 5399 5403 5406 5411 5414 5417 5420 5426 5428 5431 5431 5429 5427 5425 5424 5423 5422 5419 5416
5448 5442 5436 5430 5425 5419 5414 5411 5406 5401 5397 5393 5389 5386 5384 5384 5383 5382 5382 5385 5387 5391 5395 5398 5400 5404 5408 5411 5416 5421 5424 5426 5427 5429 5430 5429 5427 5426 5424 5423 5421 5419 5417
5439 5433 5428 5423 5418 5411 5406 5399 5395 5389 5382 5380 5380 5379 5377 5378 5375 5372 5374 5379 5382 5387 5390 5397 5402 5406 5410 5414 5418 5422 5425 5427 5429 5429 5430 5430 5428 5426 5424 5422 5420 5419 5416
5431 5425 5421 5416 5411 5407 5401 5394 5382 5379 5374 5370 5368 5367 5371 5370 5370 5372 5374 5378 5381 5385 5391 5397 5400 5403 5407 5411 5417 5421 5424 5427 5428 5430 5431 5430 5428 5426 5424 5422 5420 5417 5414
5423 5418 5415 5411 5407 5403 5399 5394 5388 5378 5372 5370 5368 5367 5367 5368 5371 5373 5377 5380 5384 5387 5393 5396 5399 5402 5406 5411 5415 5419 5424 5426 5428 5430 5431 5430 5429 5427 5424 5421 5418 5416 5413
5419 5413 5409 5408 5404 5400 5396 5392 5388 5384 5379 5375 5371 5369 5369 5371 5373 5376 5379 5383 5388 5391 5392 5395 5398 5402 5406 5411 5415 5419 5424 5427 5430 5431 5431 5431 5430 5428 5425 5422 5419 5415 5413
5417 5414 5409 5406 5403 5399 5395 5392 5388 5383 5379 5377 5375 5374 5373 5375 5377 5379 5382 5386 5388 5391 5393 5396 5399 5403 5408 5413 5418 5422 5426 5429 5430 5431 5432 5432 5432 5431 5428 5425 5421 5413 5414
5415 5404 5404 5406 5403 5400 5396 5393 5388 5384 5381 5378 5376 5375 5376 5378 5381 5383 5384 5386 5389 5391 5394 5397 5401 5406 5410 5416 5421 5425 5429 5432 5433 5434 5435 5434 5434 5433 5431 5428 5425 5422 5418
5419 5411 5401 5406 5404 5400 5397 5393 5389 5385 5382 5379 5377 5376 5374 5379 5381 5383 5385 5387 5389 5393 5396 5399 5404 5409 5414 5418 5423 5427 5431 5434 5435 5436 5436 5436 5436 5435 5434 5431 5429 5426 5423
5421 5417 5412 5409 5404 5401 5397 5394 5391 5388 5384 5382 5381 5381 5379 5382 5384 5385 5387 5389 5392 5395 5398 5402 5407 5411 5415 5419 5423 5428 5432 5434 5435 5436 5437 5438 5437 5436 5434 5433 5431 5430 5428
5421 5418 5414 5410 5406 5398 5400 5397 5394 5391 5389 5387 5386 5385 5385 5386 5387 5388 5391 5393 5396 5399 5402 5406 5410 5415 5419 5422 5426 5429 5432 5433 5433 5434 5436 5438 5438 5437 5435 5434 5432 5431 5429
5423 5420 5417 5413 5410 5407 5404 5400 5397 5395 5393 5392 5390 5389 5388 5389 5390 5392 5394 5397 5400 5404 5407 5410 5413 5417 5421 5425 5428 5431 5429 5429 5430 5434 5436 5438 5438 5437 5436 5434 5433 5431 5431
5425 5422 5420 5416 5413 5410 5407 5404 5401 5398 5397 5395 5394 5393 5393 5394 5395 5396 5399 5401 5405 5408 5411 5413 5416 5420 5423 5426 5427 5428 5428 5430 5431 5432 5436 5438 5438 5437 5436 5435 5434 5433 5432
5427 5424 5422 5419 5415 5412 5410 5407 5404 5402 5400 5399 5398 5397 5397 5398 5398 5400 5402 5405 5408 5411 5413 5416 5418 5421 5423 5426 5426 5427 5430 5431 5433 5435 5436 5438 5439 5437 5437 5436 5435 5435 5433